Regional Weather Roundup
Issued by NWS

Home | Current Version | Previous Version | Text Only | Print | Product List | Glossary Off
Versions: 1 2 3 4 5 6 7 8 9 10 11 12 13 14 15 16 17 18 19 20 21 22 23 24 25 26 27

000
ASUS45 KTFX 222310
RWRMT
MONTANA REGIONAL WEATHER ROUNDUP
NATIONAL WEATHER SERVICE GREAT FALLS MT
500 PM MDT SAT JUL 22 2017

NOTE: "FAIR" INDICATES FEW OR NO CLOUDS BELOW 12000 FEET WITH NO
SIGNIFICANT WEATHER AND/OR OBSTRUCTIONS TO VISIBILITY.

MTZ001>007-043-230000-
WEST OF THE DIVIDE

CITY           SKY/WX    TMP DP  RH WIND       PRES   REMARKS
KALISPELL      SUNNY     85  42  22 S13       30.09F
MISSOULA       SUNNY     88  38  17 VRB5      30.10F
BUTTE          SUNNY     83  27  13 NW8       30.23F
MULLAN PASS    SUNNY     71  41  33 VRB6      30.32F
ANACONDA         N/A     79  39  24 NE7       30.20F
DEER LODGE       N/A     82  37  20 NW7       30.20F
EUREKA           N/A     90  45  20 MISG      30.06F
HAMILTON         N/A     84  37  18 CALM      30.14F
LIBBY            N/A     88  43  20 CALM      30.07F
PLAINS           N/A     90  45  21 W5        30.08F
$$

MTZ008-052>055-230000-
SOUTHWEST MONTANA

CITY           SKY/WX    TMP DP  RH WIND       PRES   REMARKS
BOZEMAN        SUNNY     88  26  10 NE6       30.15F
DILLON         SUNNY     87  33  14 NE7       30.17F
W YELLOWSTONE  SUNNY     81  23  12 VRB6G12   30.28F
ENNIS          SUNNY     86  23  10 NW12      30.24F
THREE FORKS      N/A     89  27  10 SE5       30.11F
TWIN BRIDGES     N/A     86  36  16 CALM      30.15F
$$

MTZ009-010-012-014-046-048-049-054-230000-
EAST SLOPES AND CENTRAL MONTANA

CITY           SKY/WX    TMP DP  RH WIND       PRES   REMARKS
CUT BANK       SUNNY     87  39  18 W10G20    30.08F
GREAT FALLS    SUNNY     87  34  15 VRB5      30.08F
MALMSTROM AFB  SUNNY     87  36  16 W10       30.08F
HELENA         SUNNY     90  36  14 W15G23    30.10F
CHOTEAU          N/A     88  37  16 NW7       30.11F
CONRAD           N/A     88  47  24 W7        30.10F
$$

MTZ011-013-016-021-045-047-050-051-230000-
NORTH CENTRAL MONTANA

CITY           SKY/WX    TMP DP  RH WIND       PRES   REMARKS
HAVRE          SUNNY     88  38  17 NW6       30.02F
LEWISTOWN      SUNNY     84  35  17 N5        30.12F
N BAR RANCH      N/A     84  34  16 NW10G16   30.16S
CHINOOK          N/A     88  39  18 SW6       30.02F
$$

MTZ017>020-022>027-061-062-230000-
NORTHEAST MONTANA

CITY           SKY/WX    TMP DP  RH WIND       PRES   REMARKS
GLASGOW        SUNNY     85  43  22 MISG      30.02F
JORDAN           N/A     87  38  17 W9        30.03F
SIDNEY         SUNNY     86  46  24 NW20G25   30.00F
WOLF POINT     MOSUNNY   89  43  20 NW21G26   30.01F
MALTA          SUNNY     88  41  19 NW15      30.02F
PLENTYWOOD       N/A     81  46  30 CALM      30.02S
POPLAR           N/A     84  46  26 NW13G18   30.01F
SCOBEY           N/A     80  47  31 W10       30.03F
$$

MTZ028>42-056>058-230000-
SOUTHCENTRAL AND SOUTHEAST MONTANA

CITY           SKY/WX    TMP DP  RH WIND       PRES   REMARKS
BAKER          SUNNY     87  38  17 NW10G28   30.06F
BILLINGS       MOSUNNY   88  29  12 E12       30.08F
LIVINGSTON     SUNNY     90  19   7 NW16      30.14F
MILES CITY     SUNNY     91  34  13 NW12G26   30.03F
BIG TIMBER     SUNNY     90  19   7 W17G24    30.15S
FORSYTH          N/A     90  36  14 CALM      30.03F
LAUREL           N/A     89  35  14 E5        30.07F
$$

REGIONAL REPORTS...DAKOTAS

CITY           SKY/WX    TMP DP  RH WIND       PRES   REMARKS
WILLISTON      SUNNY     86  46  24 NW16G25   30.00S
MINOT          MOSUNNY   80  51  36 NW23G29   29.95S
DICKINSON      SUNNY     84  45  25 NW20      30.00F
BEACH            N/A     84  39  20 NW21G28   30.08S
CROSBY           N/A     77  50  38 NW14G23   30.01R
TIOGA            N/A     79  46  31 N20G28    30.02S
WATFORD CITY     N/A     82  48  30 NW14G23   29.99S
BISMARCK       SUNNY     84  50  30 NW18G30   29.95R
GRAND FORKS    CLOUDY    77  58  51 NW17G23   29.84S
FARGO          SUNNY     84  57  39 NW14      29.85F
BUFFALO SD       N/A     88  40  18 NW17G26   29.99F
RAPID CITY     SUNNY     92  40  16 CALM      30.05F
$$

REGIONAL REPORTS...WYOMING/IDAHO/WASHINGTON

CITY           SKY/WX    TMP DP  RH WIND       PRES   REMARKS
GILLETTE       SUNNY     88  28  11 E6        30.12F
SHERIDAN       SUNNY     88  31  13 VRB3      30.11F
BUFFALO WY     SUNNY     86  30  13 VRB3      30.18F
CODY           SUNNY     83  39  21 N14       30.16F
YELLOWSTONE LA   N/A     77  22  13 W5        30.38F
IDAHO FALLS    SUNNY     88  35  15 VRB5      30.16F
BOISE          SUNNY     93  37  14 NW15G23   30.04F
SPOKANE        MOSUNNY   86  44  23 VRB3      30.11F
$$

REGIONAL REPORTS...ALBERTA

CITY           SKY/WX    TMP DP  RH WIND       PRES   REMARKS
EDMONTON       MOSUNNY   79  52  38 W6        29.96S
CALGARY        PTSUNNY   82  45  26 W16G23    30.01F
LETHBRIDGE     MOSUNNY   86  43  22 W13G28    30.01F
MEDICINE HAT   PTSUNNY   86  45  23 W10       29.99F
WATERTON GATE    N/A     82  43  24 SW14G22     N/A
CARDSTON         N/A     82  45  26 W9          N/A
MILK RIVER       N/A     88  46  23 NW12        N/A
$$

REGIONAL REPORTS...SASKATCHEWAN

CITY           SKY/WX    TMP DP  RH WIND       PRES   REMARKS
SWIFT CURRENT  MOSUNNY   77  48  36 W12       30.04F
REGINA         MOSUNNY   77  52  41 N12G20    30.00F
SASKATOON      MOSUNNY   75  57  53 NW9       30.01S
VAL MARIE        N/A     82  41  23 W13G18      N/A
ROCKGLEN         N/A     75  46  35 NW12G17     N/A
ASSINIBOIA       N/A     79  50  36 W8          N/A
$$




USA.gov is the U.S. government's official web portal to all federal, state and local government web resources and services.